Lid_Strength_Index
1 0 0 0 1 1 1 2 3 3 3 3 3 3 3 3 4 3 4 3 3 -1 0 4 2 2 2 5 5 4 7 8 8 7 7 4 5 4 3 4 4 3 4 3 2
1 1 0 0 1 1 1 2 2 2 3 3 3 3 3 3 4 4 0 -1 -1 -2 4 5 4 3 4 5 6 6 8 7 5 5 6 5 5 5 5 5 5 4 3 2 2
1 1 1 1 1 1 1 1 1 1 2 2 3 3 3 3 3 3 -0 -1 -1 0 4 4 5 4 5 5 5 6 8 5 5 5 4 5 5 4 5 6 5 5 4 3 2
1 1 1 1 1 1 1 1 1 1 1 1 2 2 2 2 7 4 -1 -1 -1 4 3 5 6 6 5 7 4 6 5 4 5 4 4 5 4 5 4 5 3 3 3 3 3
1 1 1 1 1 1 1 1 2 2 2 2 1 1 2 4 4 2 -2 0 5 5 4 6 7 7 7 5 4 5 5 4 4 4 4 4 5 5 5 3 3 3 3 3 3
1 1 1 1 1 1 2 2 2 2 2 2 1 2 2 5 0 2 3 4 4 4 5 5 7 7 6 5 5 4 4 5 4 4 4 5 5 4 4 3 3 3 3 3 3
1 1 1 1 1 1 2 2 2 2 2 1 1 2 3 3 -0 1 2 3 3 5 6 5 5 7 6 6 4 4 6 5 5 4 5 4 6 6 4 3 4 4 3 3 3
1 1 1 1 1 1 2 2 2 2 1 1 1 1 4 0 -0 1 1 2 2 4 5 5 5 6 7 5 5 6 6 8 5 5 4 5 8 7 4 4 5 4 4 3 3
1 2 2 2 1 1 2 2 2 1 1 0 1 2 4 1 2 0 0 2 2 4 4 4 5 6 6 8 8 7 9 8 7 5 5 5 7 7 6 4 5 4 4 4 3
1 2 2 2 2 2 3 3 1 2 1 0 1 4 2 3 2 1 0 1 3 4 6 6 7 8 8 9 11 9 9 8 8 6 5 6 6 6 5 4 5 4 4 4 4
1 2 2 2 2 3 3 2 3 3 2 4 3 4 3 2 1 2 1 3 3 5 8 7 9 11 9 8 7 7 8 8 7 5 6 6 7 6 6 5 5 5 5 4 4
2 2 2 2 2 3 3 3 4 4 7 4 4 3 2 1 4 2 1 4 5 7 6 7 9 8 7 7 7 8 8 8 7 6 6 6 7 5 6 5 4 5 5 4 4
2 2 2 2 3 2 2 3 3 3 6 5 3 4 3 3 4 4 2 3 5 6 6 8 7 6 7 7 8 8 9 8 8 7 6 7 8 7 5 5 4 4 4 4 4
2 2 2 3 3 1 3 2 2 2 8 6 5 4 4 3 5 2 2 3 5 6 6 6 5 6 7 8 8 10 7 7 8 8 10 7 12 8 6 6 5 4 5 4 3
2 1 2 3 2 3 2 1 2 2 15 5 5 2 3 5 4 4 2 3 6 6 6 7 6 7 7 8 7 9 6 6 7 8 8 8 10 8 6 7 6 5 4 3 3
2 1 2 1 1 0 0 1 3 8 13 7 5 5 6 5 5 4 4 3 3 5 5 6 4 5 6 6 6 7 8 8 8 9 11 9 9 9 8 7 6 5 4 3 3
3 2 2 0 2 -0 1 3 9 11 6 7 7 6 6 7 6 5 6 6 7 9 8 7 6 5 5 6 5 7 8 12 13 12 13 9 10 9 6 5 5 5 4 3 3
3 3 1 0 -0 -0 2 6 12 8 8 6 6 6 7 6 6 6 6 7 6 6 8 9 10 7 5 6 7 7 8 11 14 13 11 8 11 9 5 4 4 4 4 3 3
3 1 1 -0 -1 -0 4 9 10 8 6 7 6 8 7 6 6 6 7 7 6 6 8 9 9 6 6 6 6 7 9 7 10 9 11 10 8 6 5 5 5 4 4 4 3
2 2 2 -1 -1 1 6 9 7 6 6 6 8 7 8 7 7 7 7 6 6 5 5 7 10 7 6 5 5 6 6 9 9 13 14 11 10 10 7 6 5 5 4 4 3
2 5 1 -1 -0 4 9 8 6 5 5 6 7 8 7 7 7 7 7 6 5 6 5 6 7 8 6 7 8 7 8 8 8 9 13 13 11 6 6 6 5 5 4 4 4
3 7 1 -0 6 5 7 6 6 5 5 6 5 6 7 7 7 7 8 6 4 5 7 5 7 10 8 6 5 6 7 7 10 11 9 10 11 5 6 5 5 5 4 4 4
5 5 1 1 8 7 5 6 5 6 6 6 6 6 5 7 8 8 7 5 5 5 7 5 7 11 10 8 6 7 7 7 7 8 11 13 11 5 5 6 5 5 5 5 4
5 8 4 3 4 5 6 6 6 5 5 5 5 5 6 7 6 8 8 6 4 5 4 5 7 10 13 11 9 10 8 7 8 10 10 10 9 7 7 7 6 6 6 5 6
5 6 6 8 6 6 6 6 7 7 5 4 6 6 7 8 7 9 7 6 5 6 5 6 9 8 8 8 8 9 9 8 9 8 10 9 10 9 7 6 6 5 7 6 6
6 6 5 5 5 6 7 7 7 6 6 6 6 6 6 7 6 8 7 6 7 5 6 5 9 8 9 7 7 8 8 7 7 7 8 8 10 6 6 5 6 6 6 6 6
2 3 4 7 6 6 6 6 6 5 5 4 5 6 6 6 5 5 6 7 5 6 6 7 8 9 11 8 8 10 8 8 7 7 8 11 9 7 7 7 7 6 6 6 6